Change the Weather History Date:

Monday, February 17, 2014

  Actual Average Record
Temperature  
Mean Temperature 22 °F -  
Max Temperature 28 °F 40 °F 56 °F (1976)
Min Temperature 12 °F 21 °F 1 °F (1979)
Degree Days  
Heating Degree Days 42    
Moisture  
Dew Point 6 °F    
Average Humidity 51    
Maximum Humidity 70    
Minimum Humidity 38    
Precipitation  
Precipitation 0.00 in - - ()
Sea Level Pressure  
Sea Level Pressure 30.18 in    
Wind  
Wind Speed 11 mph (NW)    
Max Wind Speed 17 mph    
Max Gust Speed 29 mph    
Visibility 10 miles    
Events      
Averages and records for this station are not official NWS values.
T = Trace of Precipitation, MM = Missing Value Source: NWS Daily Summary

Daily Weather History Graph

Daily Weather History Graph

Search for Another Location

Airport or City:

Trip Planner

Search our weather history database for the weather conditions in past years. The results will help you decide how hot, cold, wet, or windy it might be!

Date:

Astronomy

Feb. 17, 2014 Rise Set
Actual Time 6:33 AM EST 5:17 PM EST
Civil Twilight 6:05 AM EST 5:45 PM EST
Nautical Twilight 5:33 AM EST 6:17 PM EST
Astronomical Twilight 5:00 AM EST 6:50 PM EST
Moon 8:11 PM EST (2/17) 7:30 AM EST (2/17)
Length of Visible Light 11h 39m
Length of Day
10h 43m
Waning Gibbous, 93% of the Moon is Illuminated
Feb 17
Waning Gibbous
Feb 22
Last Quarter
Mar 1
New
Mar 8
First Quarter
Mar 16
Full

Hourly Weather History & Observations

Time (EST) Temp. Windchill Dew Point Humidity Pressure Visibility Wind Dir Wind Speed Gust Speed Precip Events Conditions
12:56 AM 24.1 °F 13.1 °F 12.9 °F 62% 29.94 in 10.0 mi WNW 11.5 mph - N/A   Overcast
1:56 AM 23.0 °F 14.7 °F 12.0 °F 63% 29.96 in 10.0 mi NW 6.9 mph 18.4 mph N/A   Overcast
2:56 AM 21.9 °F 13.4 °F 10.9 °F 63% 29.98 in 10.0 mi WNW 6.9 mph - N/A   Mostly Cloudy
3:56 AM 19.9 °F 7.3 °F 6.1 °F 55% 30.01 in 10.0 mi NNW 12.7 mph 23.0 mph N/A   Clear
4:56 AM 18.0 °F 3.6 °F 3.0 °F 52% 30.01 in 10.0 mi NW 15.0 mph 23.0 mph N/A   Clear
5:56 AM 17.1 °F 4.3 °F 3.0 °F 54% 30.07 in 10.0 mi NW 11.5 mph 21.9 mph N/A   Clear
6:56 AM 17.1 °F 3.0 °F 3.0 °F 54% 30.10 in 10.0 mi NW 13.8 mph 24.2 mph N/A   Clear
7:56 AM 18.0 °F 3.6 °F 3.9 °F 54% 30.13 in 10.0 mi NW 15.0 mph 21.9 mph N/A   Clear
8:56 AM 19.0 °F 5.6 °F 5.0 °F 54% 30.15 in 10.0 mi NNW 13.8 mph 26.5 mph N/A   Clear
9:56 AM 21.0 °F 6.6 °F 6.1 °F 53% 30.17 in 10.0 mi NNW 17.3 mph 26.5 mph N/A   Clear
10:56 AM 23.0 °F 10.1 °F 6.1 °F 48% 30.18 in 10.0 mi NNW 15.0 mph 26.5 mph N/A   Clear
11:56 AM 25.0 °F 12.2 °F 6.1 °F 45% 30.18 in 10.0 mi NW 16.1 mph 27.6 mph N/A   Clear
12:56 PM 27.0 °F 16.1 °F 5.0 °F 39% 30.19 in 10.0 mi NNW 12.7 mph 26.5 mph N/A   Clear
1:56 PM 28.0 °F 16.1 °F 7.0 °F 41% 30.19 in 10.0 mi NNW 16.1 mph 28.8 mph N/A   Clear
2:56 PM 28.9 °F 19.2 °F 6.1 °F 38% 30.24 in 10.0 mi NNW 11.5 mph 24.2 mph N/A   Clear
3:56 PM 28.9 °F 18.2 °F 8.1 °F 41% 30.25 in 10.0 mi North 13.8 mph 21.9 mph N/A   Clear
4:56 PM 27.0 °F 17.3 °F 6.1 °F 41% 30.28 in 10.0 mi NNW 10.4 mph - N/A   Clear
5:56 PM 25.0 °F 18.1 °F 6.1 °F 45% 30.30 in 10.0 mi NW 5.8 mph - N/A   Clear
6:56 PM 24.1 °F 17.0 °F 5.0 °F 44% 30.31 in 10.0 mi NNW 5.8 mph - N/A   Clear
7:56 PM 25.0 °F 14.8 °F 3.0 °F 39% 30.32 in 10.0 mi NNW 10.4 mph 18.4 mph N/A   Clear
8:56 PM 25.0 °F 15.5 °F 7.0 °F 46% 30.33 in 10.0 mi NNW 9.2 mph - N/A   Clear
9:56 PM 24.1 °F 14.4 °F 9.0 °F 53% 30.33 in 10.0 mi North 9.2 mph - N/A   Clear
10:56 PM 21.0 °F - 9.0 °F 60% 30.31 in 10.0 mi Calm Calm - N/A   Clear
11:56 PM 12.0 °F 4.1 °F 3.9 °F 70% 30.35 in 10.0 mi WSW 4.6 mph - N/A   Clear